Location: Ahausen
(50.4985°N, 8.2722°E)
Time: 01:16:42
(UTC+00:00)

ERS-1 Rocket - Pass Details

Date: 18 September 2020
Orbit: 754 x 757 km, 98.5° (Epoch: 23 October)

Event Time Altitude Azimuth Distance (km) Brightness Sun altitude
Exits shadow 20:57:23 58° 346° (NNW) 886 3.4 -29.8°
Drops below altitude 10° 21:01:25 10° 346° (NNW) 2,296 6.2 -30.2°
Sets 21:03:44 0° 346° (NNW) 3,226 7.1 -30.4°
